Simultaneous Nadir Overpasses (SNOs) Predictions

Prediction of SNOs between FY3D and TERRA Satellite Orbit:

Table of predicted SNOs for the next 14.0 days since TLE Epoch: 11/26/2022
Index Date (FY3D) Time (FY3D) Lat,Lon (FY3D) SZA (FY3D ) Date (TERRA) Time (TERRA) Lat,Lon (TERRA) SZA (TERRA ) Distance(km) Time Diff (sec)
1 11/27/2022 20:39:11 72.47,-130.07 93.63 11/27/2022 20:40:07 72.49,-130.03 93.65 2.63 56
2 11/27/2022 21:29:54 -72.40, 37.38 86.43 11/27/2022 21:29:33 -72.41, 37.47 86.43 3.36 21
3 11/30/2022 08:43:39 -73.14,-132.52 85.30 11/30/2022 08:44:46 -73.05,-130.19 85.35 75.78 67
4 11/30/2022 09:34:12 72.41, 36.32 94.00 11/30/2022 09:34:19 72.42, 36.28 94.01 1.94 7
5 11/30/2022 10:24:55 -72.34,-156.23 86.07 11/30/2022 10:23:45 -72.34,-156.21 86.07 0.56 70
6 12/02/2022 21:38:28 -72.48, 35.15 85.56 12/02/2022 21:39:07 -72.49, 35.18 85.55 1.86 39
7 12/02/2022 22:29:14 72.41,-157.40 94.38 12/02/2022 22:28:30 72.39,-157.34 94.36 2.58 44
8 12/05/2022 09:42:47 72.54, 33.97 94.85 12/05/2022 09:43:52 72.52, 34.03 94.83 3.21 65
9 12/05/2022 10:33:29 -72.42,-158.47 85.28 12/05/2022 10:33:18 -72.45,-158.46 85.25 2.70 11
10 12/05/2022 11:24:00 71.59, 10.44 93.92 12/05/2022 11:22:54 71.65, 7.81 93.94 92.75 66
11 12/07/2022 22:37:46 72.45,-159.56 95.04 12/07/2022 22:38:02 72.47,-159.63 95.06 3.07 16
12 12/07/2022 23:28:29 -72.37, 7.90 85.03 12/07/2022 23:27:28 -72.39, 7.87 85.02 2.02 61



Historial Predications of SNOs between FY3D and TERRA
